Biloxi, MS

2:27 AM CST on November 22, 2017 (GMT -0600)
Keesler Air Force Base

Weather History for KBIX - September, 2014

Change the Weather History Date:

Wednesday, September 10, 2014

  Actual Average Record
Temperature  
Mean Temperature 84 °F -  
Max Temperature 90 °F 87 °F 101 °F (1954)
Min Temperature 77 °F 72 °F 62 °F (2011)
Cooling Degree Days 18    
Growing Degree Days 34 (Base 50)    
Moisture  
Dew Point 75 °F    
Average Humidity 79    
Maximum Humidity 94    
Minimum Humidity 61    
Precipitation  
Precipitation 0.28 in - - ()
Sea Level Pressure  
Sea Level Pressure 29.96 in    
Wind  
Wind Speed 6 mph (SSE)    
Max Wind Speed 14 mph    
Max Gust Speed 20 mph    
Visibility 9 miles    
Events Rain , Thunderstorm    
Averages and records for this station are not official NWS values.
T = Trace of Precipitation, MM = Missing Value Source: NWS Daily Summary

Daily Weather History Graph

Daily Weather History Graph

Search for Another Location

Airport or City:

Trip Planner

Search our weather history database for the weather conditions in past years. The results will help you decide how hot, cold, wet, or windy it might be!

Date:

Astronomy

Sep. 10, 2014 Rise Set
Actual Time 6:37 AM CDT 7:07 PM CDT
Civil Twilight 6:13 AM CDT 7:31 PM CDT
Nautical Twilight 5:44 AM CDT 7:59 PM CDT
Astronomical Twilight 5:15 AM CDT 8:28 PM CDT
Moon 8:17 PM CDT (9/10) 8:15 AM CDT (9/10)
Length of Visible Light 13h 18m
Length of Day
12h 30m
Waning Gibbous, 96% of the Moon is Illuminated
Sep 10
Waning Gibbous
Sep 15
Last Quarter
Sep 24
New
Oct 1
First Quarter
Oct 8
Full

Hourly Weather History & Observations

Time (CDT) Temp. Heat Index Dew Point Humidity Pressure Visibility Wind Dir Wind Speed Gust Speed Precip Events Conditions
12:08 AM 84.2 °F 92.3 °F 75.2 °F 74% 29.96 in 10.0 mi SSE 6.9 mph - N/A   Mostly Cloudy
12:58 AM 84.0 °F 91.5 °F 74.7 °F 73% 29.95 in 10.0 mi SSE 3.5 mph - N/A   Mostly Cloudy
1:23 AM 84.2 °F 90.9 °F 73.4 °F 70% 29.94 in 10.0 mi South 5.8 mph - N/A   Scattered Clouds
1:58 AM 83.7 °F 90.4 °F 73.6 °F 72% 29.95 in 10.0 mi South 5.8 mph - N/A   Clear
2:58 AM 83.5 °F 90.3 °F 73.9 °F 73% 29.94 in 10.0 mi South 5.8 mph - N/A   Clear
3:58 AM 83.8 °F 91.1 °F 74.3 °F 73% 29.94 in 10.0 mi SSE 4.6 mph - N/A   Mostly Cloudy
4:18 AM 84.2 °F 92.3 °F 75.2 °F 74% 29.93 in 10.0 mi South 5.8 mph - N/A   Mostly Cloudy
4:23 AM 84.2 °F 92.3 °F 75.2 °F 74% 29.93 in 10.0 mi SSW 6.9 mph - N/A   Mostly Cloudy
4:58 AM 79.5 °F - 75.7 °F 88% 29.94 in 10.0 mi NNE 4.6 mph - N/A   Partly Cloudy
5:33 AM 78.8 °F - 75.2 °F 89% 29.94 in 10.0 mi NNW 3.5 mph - N/A   Mostly Cloudy
5:43 AM 78.8 °F - 75.2 °F 89% 29.94 in 10.0 mi North 3.5 mph - N/A   Mostly Cloudy
5:53 AM 78.8 °F - 75.2 °F 89% 29.95 in 10.0 mi NNE 1.2 mph - N/A   Mostly Cloudy
5:58 AM 78.4 °F - 75.7 °F 91% 29.96 in 10.0 mi NNE 1.2 mph - N/A   Mostly Cloudy
6:03 AM 78.8 °F - 75.2 °F 89% 29.95 in 10.0 mi NNE 3.5 mph - N/A   Mostly Cloudy
6:47 AM 78.8 °F - 75.2 °F 89% 29.96 in 5.0 mi South 13.8 mph 17.3 mph N/A Rain Light Rain
6:52 AM 78.8 °F - 75.2 °F 89% 29.96 in 2.5 mi South 11.5 mph 17.3 mph N/A Rain Heavy Rain
6:57 AM 78.8 °F - 75.2 °F 89% 29.96 in 1.5 mi SE 8.1 mph - N/A Rain Heavy Rain
6:58 AM 78.4 °F - 74.5 °F 88% 29.97 in 1.5 mi SE 8.1 mph - 0.12 in Rain Heavy Rain
7:03 AM 78.8 °F - 75.2 °F 89% 29.97 in 1.2 mi SE 5.8 mph - N/A Rain Heavy Rain
7:08 AM 77.0 °F - 75.2 °F 94% 29.97 in 2.0 mi SE 2.3 mph - N/A Rain , Thunderstorm Heavy Rain
7:13 AM 77.0 °F - 75.2 °F 94% 29.97 in 3.0 mi Calm Calm - N/A Rain , Thunderstorm Rain
7:35 AM 78.8 °F - 75.2 °F 89% 29.97 in 10.0 mi NNW 1.2 mph - N/A   Mostly Cloudy
7:56 AM 78.8 °F - 75.2 °F 89% 29.97 in 10.0 mi Variable 2.3 mph - N/A Rain Light Rain
7:58 AM 78.8 °F - 75.2 °F 89% 29.98 in 10.0 mi NW 1.2 mph - 0.15 in Rain Light Rain
8:06 AM 78.8 °F - 77.0 °F 94% 29.97 in 10.0 mi Calm Calm - N/A   Scattered Clouds
8:58 AM 81.7 °F 88.7 °F 76.1 °F 83% 29.99 in 10.0 mi Calm Calm - 0.00 in   Mostly Cloudy
9:58 AM 83.3 °F 91.4 °F 75.7 °F 78% 29.99 in 10.0 mi Variable 1.2 mph - N/A   Mostly Cloudy
10:58 AM 86.2 °F 96.0 °F 75.7 °F 71% 30.00 in 10.0 mi Calm Calm - N/A   Scattered Clouds
11:58 AM 89.2 °F 100.1 °F 75.7 °F 64% 30.00 in 10.0 mi South 6.9 mph - N/A   Partly Cloudy
12:58 PM 89.8 °F 100.3 °F 75.4 °F 62% 29.99 in 10.0 mi South 8.1 mph - N/A   Clear
1:58 PM 90.1 °F 101.8 °F 75.9 °F 63% 29.97 in 10.0 mi South 9.2 mph - N/A   Scattered Clouds
2:58 PM 90.1 °F 101.2 °F 75.6 °F 62% 29.95 in 10.0 mi SSE 12.7 mph - N/A   Clear
3:58 PM 89.6 °F 99.3 °F 74.5 °F 61% 29.93 in 10.0 mi South 11.5 mph - N/A   Clear
4:58 PM 88.2 °F 96.9 °F 73.9 °F 63% 29.93 in 10.0 mi South 8.1 mph - N/A   Clear
5:58 PM 87.8 °F 97.1 °F 74.8 °F 65% 29.94 in 10.0 mi Variable 5.8 mph - N/A   Clear
6:58 PM 85.6 °F 93.8 °F 74.3 °F 69% 29.93 in 10.0 mi SSE 5.8 mph - N/A   Clear
7:58 PM 84.9 °F 92.5 °F 74.3 °F 70% 29.94 in 10.0 mi SSE 6.9 mph - N/A   Clear
8:58 PM 84.7 °F 92.5 °F 74.5 °F 71% 29.96 in 10.0 mi South 8.1 mph - N/A   Clear
9:58 PM 84.6 °F 92.4 °F 74.7 °F 72% 29.97 in 10.0 mi South 8.1 mph - N/A   Clear
10:58 PM 84.6 °F 92.4 °F 74.8 °F 72% 29.96 in 10.0 mi South 9.2 mph - N/A   Partly Cloudy
11:33 PM 84.2 °F 92.3 °F 75.2 °F 74% 29.95 in 9.0 mi SSE 10.4 mph 19.6 mph N/A   Mostly Cloudy
11:34 PM 84.2 °F 94.1 °F 77.0 °F 79% 29.95 in 8.0 mi South 9.2 mph 19.6 mph N/A Rain Rain
11:39 PM 84.2 °F 94.1 °F 77.0 °F 79% 29.95 in 8.0 mi South 9.2 mph 19.6 mph N/A Rain Light Rain
11:44 PM 82.4 °F 90.9 °F 77.0 °F 84% 29.95 in 10.0 mi SSW 9.2 mph - N/A Rain Light Rain
11:45 PM 82.4 °F 90.9 °F 77.0 °F 84% 29.95 in 10.0 mi South 8.1 mph - N/A   Scattered Clouds
11:55 PM 82.4 °F 90.9 °F 77.0 °F 84% 29.95 in 10.0 mi South 9.2 mph - N/A   Mostly Cloudy
11:58 PM 83.1 °F 91.6 °F 76.3 °F 80% 29.96 in 10.0 mi SSE 6.9 mph - 0.01 in   Mostly Cloudy